Preview of NWS' New Version of Forecast
This preview is not operational and should not be used for support decisions.

Regional Weather Roundup (RWR)

Issued by National Weather Service (NWS)

                            
000
ASUS43 KBIS 201710
RWRND 

NORTH DAKOTA REGIONAL WEATHER ROUNDUP
NATIONAL WEATHER SERVICE BISMARCK ND
1200 PM CDT THU JUN 20 2019

NOTE: "FAIR" INDICATES FEW OR NO CLOUDS BELOW 12,000 FEET WITH NO
SIGNIFICANT WEATHER AND/OR OBSTRUCTIONS TO VISIBILITY.


NDZ001>003-009>011-017-201800-
NORTHWEST NORTH DAKOTA
  
CITY           SKY/WX    TMP DP  RH WIND       PRES   REMARKS
WILLISTON      PTSUNNY   64  51  62 W12       29.71S                  
MINOT          SUNNY     59  54  83 S6        29.70S                  
MINOT AFB      MOSUNNY   59  58  98 SW6       29.69R                  
$$
 
NDZ018>021-031>035-040>046-201800-
SOUTHWEST NORTH DAKOTA
  
CITY           SKY/WX    TMP DP  RH WIND       PRES   REMARKS
BISMARCK       PTSUNNY   67  54  63 N8G17     29.72R                  
DICKINSON      MOSUNNY   63  49  60 W15       29.73R                  
GARRISON         N/A     62  53  72 VRB5      29.71R                  
HETTINGER ARPT MOSUNNY   65  50  58 NW12G21   29.76S                  
$$
 
NDZ004>008-012>016-024-026-027-054-201800-
NORTHEAST NORTH DAKOTA
  
CITY           SKY/WX    TMP DP  RH WIND       PRES   REMARKS
GRAND FORKS    PTSUNNY   74  49  41 S20G29    29.74S                  
GRND FRKS AFB  PTSUNNY   72  52  49 SE16      29.74S                  
DEVILS LAKE    RAIN      58  55  90 SE16      29.75R                  
$$
 
NDZ022-023-025-028>030-036>039-047>053-201800-
SOUTHEAST NORTH DAKOTA
  
CITY           SKY/WX    TMP DP  RH WIND       PRES   REMARKS
FARGO          CLOUDY    65  54  67 E14       29.72S                  
JAMESTOWN      LGT RAIN  61  57  87 S12       29.71R                  
$$